Tracking 22439 objects as of 28-Feb-2021
HD Live streaming from Space Station
objects crossing your sky now

FREGAT DEB

Track FREGAT DEB now!
10-day predictions


NORAD ID: 46258
Int'l Code: 2011-037KU
Perigee: 911.8 km
Apogee: 4,798.9 km
Inclination: 51.9 °
Period: 147.0 minutes
Semi major axis: 9226 km
RCS: Unknown
Launch date: July 18, 2011
Source: Commonwealth of Independent States (former USSR) (CIS)
Launch site: TYURATAM MISSILE AND SPACE COMPLEX (TTMTR)

Note: This is SATELLITE DEBRIS
aabbcc
Your satellite tracking list
Your tracking list is empty




NASA's NSSDC Master Catalog

Two Line Element Set (TLE):
1 46258U 11037KU  21058.72929481 -.00006081  00000-0 -33914-1 0  9993
2 46258  51.8927 273.7992 2106496  19.4897 347.5460  9.79619376 18649
Source of the keplerian elements: AFSPC